[[{"header":{"parameterUnit":"m.s-1","parameterCategory":1,"la1":30.2991,"la2":30.254,"lo1":-89.0895,"lo2":-89.0444,"dy":0.0017,"dx":0.0017,"nx":28,"ny":28,"refTime":"2025-06-19T21:00:00:Z","depth":0,"parameterNumber":2,"parameterNumberName":"U-component_of_WINDS"},"data":[0,0,0,0,0,0,0,0,0,0,0,0,0,0,0,0,0,0,0,0,0,0,0,0,0,0,0,0,0,0,0,0,0,0,0,0,0,0,0,0,0,0,0,0,0,0,0,0,0,0,0,0,0,0,0,0,0,0,2.8658,2.8658,0,2.8707,2.8707,2.8708,2.8712,2.8711,2.8711,2.871,2.8762,2.8764,2.8765,0,0,0,0,0,0,0,0,0,0,0,0,0,2.8568,2.857,2.8658,2.8658,2.8659,2.8707,2.8707,2.8708,2.8712,2.8711,2.8711,2.871,2.8761,2.8763,2.8766,0,0,0,0,0,0,0,0,0,0,0,0,0,2.8611,2.857,2.8657,2.8667,2.8668,2.8707,2.8707,2.8708,2.8712,2.8711,2.8711,2.871,2.876,2.8763,2.8766,2.8799,0,0,2.8775,2.8776,0,0,0,0,0,0,0,0,2.8609,2.8614,2.8665,2.8666,2.8667,2.8702,2.8695,2.8739,2.8712,2.8695,2.871,2.8709,2.8743,2.8747,2.8758,2.8802,2.8804,2.8775,2.8776,2.8778,2.8778,0,0,0,0,0,0,0,2.8606,2.8612,2.8677,2.8665,2.8667,2.8668,2.8674,2.8703,2.8723,2.8697,2.8697,2.8703,2.8743,2.8755,2.8759,2.8805,2.8775,2.8777,2.8779,2.878,2.8879,2.888,0,0,0,0,0,0,2.8601,2.861,2.8676,2.8679,2.8635,2.8671,2.8677,2.8692,2.8723,2.8727,2.8704,2.8703,2.8751,2.8756,2.8761,2.8802,2.8778,2.878,2.8782,2.8878,2.8879,2.888,0,0,0,0,0,0,2.8599,2.8607,2.8674,2.8644,2.8653,2.8673,2.869,2.8693,2.8705,2.8728,2.8731,2.8712,2.875,2.8757,2.879,2.8804,2.8782,2.8784,2.8877,2.8878,2.888,2.8885,0,0,0,0,0,0,2.8596,2.8606,2.8619,2.8645,2.8654,2.8701,2.8691,2.8695,2.871,2.871,2.8737,2.874,2.875,2.8786,2.8793,2.8808,2.8786,2.8876,2.8877,2.8879,2.8884,2.8887,2.8889,0,0,0,0,0,2.8593,2.8618,2.8619,2.8627,2.8671,2.8702,2.8708,2.8718,2.8711,2.8724,2.8739,2.874,2.8802,2.8789,2.8797,2.8813,2.8875,2.8877,2.8879,2.8883,2.8886,2.8889,0,0,0,0,0,0,2.8594,2.8622,2.8623,2.8657,2.8677,2.8703,2.8719,2.8722,2.8744,2.8743,2.8755,2.8762,2.8794,2.8807,2.8792,2.8847,2.8837,2.8841,2.8838,2.8841,2.8844,2.884,2.8789,0,0,0,0,0,2.8598,2.8621,2.8644,2.8672,2.8682,2.8699,2.8713,2.8719,2.8741,2.8749,2.8766,2.8787,2.8811,2.8827,2.885,2.8886,2.8892,2.8901,2.8903,2.8905,2.8909,2.8929,2.8933,2.8887,2.8887,2.8887,0,0,2.8607,2.8625,2.8638,2.8673,2.8689,2.8713,2.8706,2.8731,2.8749,2.8753,2.8785,2.8798,2.8822,2.8856,2.8872,2.8868,2.8923,2.8908,2.891,2.8912,2.8931,2.8936,2.8939,2.8888,2.8888,2.8888,0,0,2.8635,2.8651,2.8676,2.8692,2.8717,2.8728,2.8734,2.8759,2.8768,2.88,2.8803,2.8825,2.8866,2.8883,2.8897,2.8932,2.8934,2.894,2.8953,2.8973,2.8976,2.8979,2.8992,2.8996,2.8943,2.8943,2.8943,0,2.8643,2.8678,2.8689,2.8714,2.8729,2.8734,2.8759,2.8775,2.8806,2.8816,2.8811,2.8863,2.888,2.8918,2.8927,2.8938,2.8945,2.8937,2.8975,2.8978,2.8981,2.8994,2.8998,2.8943,2.8943,2.8943,2.8943,0,2.8687,2.8711,2.8729,2.8758,2.8776,2.8801,2.8816,2.8832,2.8837,2.8849,2.8882,2.8902,2.8929,2.8939,2.8944,2.8978,2.8975,2.8972,2.8963,2.8986,2.8998,2.9002,2.8944,2.8944,2.8944,2.8943,0,0,2.8717,2.8752,2.8758,2.8772,2.8799,2.8818,2.8844,2.8871,2.8885,2.8906,2.8928,2.8963,2.8961,2.8977,2.8984,2.9001,2.9027,2.8996,2.8997,2.9001,2.9066,2.9068,2.9074,2.9029,2.903,2.903,2.9064,0,2.8748,2.8794,2.8804,2.8843,2.8866,2.8871,2.8894,2.8913,2.8925,2.8947,2.896,2.8984,2.8979,2.8989,2.9006,2.9021,2.9041,2.9018,2.905,2.9051,2.9044,2.908,2.9082,2.9113,2.9069,2.907,2.907,0,2.879,2.8812,2.8854,2.8879,2.8889,2.8909,2.8934,2.8955,2.8977,2.8984,2.9002,2.9008,2.9035,2.9024,2.9063,2.9047,2.9061,2.907,2.9071,2.9075,2.9062,2.9084,2.9123,2.9128,2.9078,2.9077,2.9077,0,2.8808,2.8848,2.8878,2.889,2.8919,2.8933,2.8946,2.8968,2.8983,2.9006,2.9016,2.9041,2.9055,2.9075,2.9088,2.9078,2.9125,2.9115,2.9132,2.9132,2.9142,2.9141,2.9183,2.915,2.915,2.915,2.915,0,2.8842,2.8867,2.8887,2.8905,2.8934,2.8946,2.8974,2.8987,2.9006,2.9028,2.9033,2.9053,2.9069,2.9091,2.9101,2.9131,2.9137,2.9144,2.9147,2.9144,2.9143,2.9153,2.9151,2.9151,2.9151,2.9151,2.9151,0,2.8867,2.8881,2.8914,2.8939,2.8946,2.8966,2.8987,2.9006,2.9018,2.9045,2.9052,2.9071,2.9097,2.9112,2.9145,2.9152,2.9186,2.9187,2.9178,2.9179,2.9195,2.9193,2.9246,2.9253,2.9215,2.9215,2.9216,0,2.8887,2.8907,2.8934,2.8949,2.8962,2.8985,2.9001,2.9014,2.903,2.9057,2.9072,2.9099,2.9121,2.9163,2.918,2.9206,2.9208,2.9224,2.9212,2.9208,2.9208,2.9207,2.9209,2.9227,2.9227,2.9227,2.9227,0,2.8923,2.8929,2.8951,2.8976,2.8995,2.9015,2.9035,2.9047,2.9063,2.9081,2.9108,2.9125,2.9159,2.9186,2.9213,2.9227,2.923,2.9231,2.9237,2.9234,2.9228,2.9231,2.9184,2.923,2.923,2.923,2.9229,2.9229,2.8946,2.8964,2.8985,2.901,2.9027,2.9046,2.9064,2.9078,2.9101,2.913,2.9136,2.9164,2.9186,2.9223,2.9237,2.926,2.9257,2.9265,2.9267,2.9268,2.9269,2.9224,2.9265,2.9265,2.9265,2.9265,2.9265,0,2.8981,2.8996,2.9019,2.9047,2.9066,2.9067,2.909,2.9106,2.9131,2.9152,2.9173,2.9204,2.923,2.9249,2.9276,2.929,2.9292,2.9297,2.9296,2.9299,2.927,2.9263,2.9295,2.9295,2.9295,2.9295,2.9295,2.9295,2.9002,2.9032,2.9041,2.9079,2.9094,2.9121,2.9134,2.9152,2.9168,2.9202,2.9224,2.9236,2.9256,2.9284,2.9308,2.9313,2.9322,2.9326,2.9331,2.9304,2.9301,2.9298,2.9291,2.9328,2.9328,2.9358,2.9359,2.9359]},{"header":{"parameterUnit":"m.s-1","parameterCategory":1,"la1":30.2991,"la2":30.254,"lo1":-89.0895,"lo2":-89.0444,"dy":0.0017,"dx":0.0017,"nx":28,"ny":28,"refTime":"2025-06-19T21:00:00:Z","depth":0,"parameterNumber":3,"parameterNumberName":"V-component_of_WINDS"},"data":[0,0,0,0,0,0,0,0,0,0,0,0,0,0,0,0,0,0,0,0,0,0,0,0,0,0,0,0,0,0,0,0,0,0,0,0,0,0,0,0,0,0,0,0,0,0,0,0,0,0,0,0,0,0,0,0,0,0,1.162,1.162,0,1.1571,1.157,1.157,1.1556,1.1556,1.1557,1.1557,1.1504,1.1502,1.1501,0,0,0,0,0,0,0,0,0,0,0,0,0,1.1701,1.1699,1.162,1.162,1.1619,1.1571,1.157,1.157,1.1556,1.1556,1.1557,1.1557,1.1504,1.1502,1.15,0,0,0,0,0,0,0,0,0,0,0,0,0,1.166,1.1699,1.1621,1.1607,1.1605,1.1571,1.157,1.1569,1.1556,1.1556,1.1557,1.1557,1.1505,1.1503,1.15,1.1476,0,0,1.1492,1.1491,0,0,0,0,0,0,0,0,1.1662,1.1657,1.1609,1.1608,1.1606,1.157,1.1579,1.1538,1.1556,1.1575,1.1557,1.1558,1.1525,1.1521,1.1511,1.1473,1.1471,1.1492,1.1491,1.149,1.1489,0,0,0,0,0,0,0,1.1665,1.1659,1.1601,1.1609,1.1606,1.1602,1.1597,1.1571,1.1548,1.1573,1.1572,1.1566,1.1524,1.1513,1.151,1.147,1.1492,1.149,1.1488,1.1487,1.1408,1.1408,0,0,0,0,0,0,1.1671,1.1661,1.1602,1.1599,1.1636,1.16,1.1594,1.1581,1.1548,1.1544,1.1566,1.1566,1.1517,1.1513,1.1508,1.1476,1.149,1.1487,1.1486,1.1409,1.1408,1.1407,0,0,0,0,0,0,1.1672,1.1665,1.1604,1.163,1.1622,1.1598,1.1584,1.158,1.1569,1.1543,1.1539,1.1559,1.1518,1.1511,1.1484,1.1474,1.1486,1.1484,1.1409,1.1409,1.1408,1.1413,0,0,0,0,0,0,1.1675,1.1666,1.1657,1.163,1.1621,1.1582,1.1583,1.1579,1.1565,1.1564,1.1535,1.1531,1.1517,1.1487,1.1481,1.1471,1.1482,1.141,1.1409,1.1408,1.1413,1.1412,1.1411,0,0,0,0,0,1.1678,1.166,1.1657,1.165,1.1609,1.1581,1.1576,1.1561,1.1564,1.1554,1.1538,1.1532,1.1476,1.1485,1.1477,1.1466,1.1411,1.1409,1.1408,1.1414,1.1412,1.1411,0,0,0,0,0,0,1.1687,1.1657,1.1652,1.1626,1.1606,1.1579,1.1567,1.1561,1.1539,1.1539,1.1522,1.1515,1.1488,1.1474,1.1485,1.144,1.1443,1.144,1.145,1.1448,1.1447,1.1451,1.148,0,0,0,0,0,1.1686,1.1666,1.1641,1.162,1.161,1.159,1.1578,1.1568,1.1547,1.1538,1.152,1.1498,1.1476,1.1461,1.1439,1.1411,1.1404,1.14,1.1399,1.1398,1.1395,1.1378,1.1376,1.1403,1.1403,1.1403,0,0,1.1683,1.1664,1.1653,1.1621,1.1605,1.1584,1.1583,1.1562,1.1546,1.1535,1.1507,1.1493,1.1468,1.144,1.1426,1.1427,1.1386,1.1396,1.1396,1.1394,1.1377,1.1374,1.1372,1.1402,1.1402,1.1403,0,0,1.1668,1.1652,1.1633,1.1616,1.1592,1.1579,1.1574,1.1548,1.1538,1.151,1.1501,1.1481,1.1444,1.1426,1.1412,1.1389,1.1383,1.1383,1.1377,1.136,1.1358,1.1356,1.1347,1.1344,1.138,1.138,1.138,0,1.1668,1.1637,1.1623,1.1602,1.1588,1.1577,1.1556,1.1541,1.151,1.15,1.1502,1.1454,1.1436,1.1403,1.1398,1.1387,1.138,1.1386,1.136,1.1357,1.1355,1.1346,1.1343,1.138,1.138,1.138,1.138,0,1.1638,1.1617,1.1603,1.1575,1.1559,1.1538,1.152,1.1506,1.1497,1.1483,1.1455,1.1434,1.1407,1.1398,1.139,1.1363,1.1365,1.1363,1.1366,1.1353,1.1344,1.1341,1.1381,1.1381,1.1381,1.1381,0,0,1.1626,1.159,1.1585,1.1572,1.1544,1.1527,1.1505,1.1479,1.1467,1.1446,1.1426,1.1394,1.1392,1.1377,1.1366,1.1352,1.1334,1.1352,1.1351,1.1348,1.1302,1.1303,1.1299,1.133,1.1329,1.1329,1.1304,0,1.1607,1.1569,1.1555,1.1523,1.1503,1.1492,1.1473,1.1453,1.1439,1.1419,1.1404,1.1381,1.1381,1.1371,1.1357,1.1339,1.1324,1.1341,1.131,1.1309,1.1316,1.1295,1.1296,1.1273,1.1301,1.13,1.13,0,1.1579,1.1558,1.1524,1.1498,1.1489,1.1472,1.1447,1.1429,1.1405,1.1396,1.1379,1.1369,1.1345,1.135,1.1315,1.1327,1.1313,1.1303,1.1301,1.1297,1.1303,1.1289,1.1266,1.1262,1.1294,1.1295,1.1295,0,1.1573,1.1537,1.1511,1.15,1.1469,1.1457,1.1444,1.1421,1.1406,1.1384,1.1374,1.1349,1.1335,1.1316,1.1299,1.1304,1.1265,1.1269,1.1256,1.1256,1.1248,1.1248,1.1221,1.1241,1.1241,1.1241,1.1241,0,1.1552,1.1532,1.1508,1.1492,1.1469,1.1453,1.1429,1.1415,1.1395,1.1375,1.1364,1.1346,1.1326,1.1305,1.1291,1.1264,1.1258,1.1249,1.1246,1.125,1.1251,1.124,1.1241,1.124,1.124,1.124,1.124,0,1.1541,1.1525,1.1496,1.147,1.1462,1.1446,1.1422,1.1406,1.1392,1.1367,1.1361,1.1338,1.1312,1.1294,1.1261,1.1252,1.1222,1.1219,1.123,1.1228,1.1216,1.1217,1.118,1.1174,1.1199,1.1198,1.1198,0,1.1529,1.1513,1.1484,1.1471,1.1457,1.1436,1.1421,1.1404,1.1389,1.1361,1.1347,1.1321,1.1299,1.1259,1.1239,1.1213,1.1209,1.1197,1.1205,1.1209,1.1207,1.1208,1.1205,1.1196,1.1196,1.1196,1.1196,0,1.1508,1.15,1.1479,1.1455,1.1438,1.1418,1.1397,1.1387,1.1366,1.1349,1.1323,1.1306,1.1273,1.1246,1.1218,1.1203,1.1195,1.1194,1.1189,1.1192,1.1199,1.1194,1.1226,1.1194,1.1195,1.1195,1.1195,1.1195,1.1495,1.148,1.1457,1.1434,1.1417,1.1398,1.1381,1.1365,1.1344,1.1315,1.1307,1.1279,1.1255,1.1217,1.1202,1.1179,1.118,1.1174,1.1172,1.117,1.117,1.1203,1.1174,1.1174,1.1174,1.1175,1.1175,0,1.1472,1.1457,1.1436,1.1408,1.139,1.1385,1.1362,1.1347,1.1323,1.1302,1.1281,1.125,1.1224,1.1202,1.1175,1.1161,1.1157,1.1155,1.1155,1.1151,1.1171,1.1178,1.1159,1.1159,1.1159,1.1159,1.1159,1.1159,1.1458,1.1432,1.1422,1.1387,1.1372,1.1345,1.1332,1.1315,1.1298,1.1264,1.1243,1.1229,1.1207,1.1178,1.1154,1.1148,1.1138,1.1136,1.113,1.1148,1.115,1.1152,1.1158,1.1135,1.1135,1.1111,1.1111,1.1111]}]]